Back to catalog

STARLINK-31809

AliveCommunicationsVLEO
NORAD 59743·PAYLOAD·🇺🇸 United States

Launched May 13, 2024 from Cape Canaveral Space Force Station

Loading…

Next Passes (next 24 hours)

TLE

FreshSource: CelesTrak SupGP

Epoch: Sep 14, 2026, 14:25 UTC

1 59743C 24090P   26257.60118056  .00002706  00000+0  98038-4 0  2575
2 59743  43.0031 189.6284 0001451 264.9231  55.6518 15.27570954    13

Track STARLINK-31809 in real time with AllMySat

Download on the App Store